Chattanooga, TN (37416)

2:46 PM EDT on July 29, 2016 (GMT -0400)
| | Change Station

Elev -9999 ft 0.00 °N, 0.00 °E | Updated

Thunderstorm
Thunderstorm
86 °F
Feels Like 92 °F
N
6
Wind Variable Wind from WSW
Gusts mph

Today
High -- | Low -- °F
--% Chance of Precip.
Yesterday
High -- | Low -- °F
Precip. -- in
Pressure 29.97 in
Visibility 10.0 miles
Clouds Scattered Clouds 3300 ft
Mostly Cloudy 4700 ft
Mostly Cloudy 9000 ft
Heat Index 92 °F
Dew Point 71 °F
Humidity 61%
Rainfall --
Snow Depth Not available.
6:47 AM 8:45 PM
Waning Crescent, 20% visible
METAR KCHA 291753Z 29009KT 10SM SCT033TCU BKN047 BKN090 31/20 A3000 RMK AO2 SLP148 TCU NW T03060200 10306 20250 58005
Pressure 29.97 in
Visibility 10.0 miles
Clouds Scattered Clouds 3300 ft
Mostly Cloudy 4700 ft
Mostly Cloudy 9000 ft
Heat Index 92 °F
Dew Point 71 °F
Humidity 61%
Rainfall --
Snow Depth Not available.
6:47 AM 8:45 PM
Waning Crescent, 20% visible
METAR KCHA 291753Z 29009KT 10SM SCT033TCU BKN047 BKN090 31/20 A3000 RMK AO2 SLP148 TCU NW T03060200 10306 20250 58005

10-Day Weather Forecast

Almanac

Astronomy

Jul. 29, 2016 Rise Set
Actual Time
Civil Twilight
Nautical Twilight
Astronomical Twilight
Moon
Length of Visible Light
Length of Day
Tomorrow will be .
, % of the Moon is Illuminated

Today's Extremes

State Highs State Lows

Community

WunderPhotos

Upload Photos

1,928,393 photos uploaded!

WunderBlog® & News

Nearby

Air Quality

  Air Quality AQ Index Pollutant
Not available.

Snow Depth

Station Depth Elevation

Earthquake Activity

City Distance Mag. Time & Date
Minimum magnitude displayed is 2.5.

Coastal Water Temperatures

Place Temperature

Stations

Nearby Weather Stations

Station Location Temp. Windchill Dew Point Humidity Wind Precip. Elev Updated Type
                   

Watches & Warnings

There are currently no watches in effect.